Powrót do katalogu

DELTA 1 DEB

AktywnySSO
NORAD 21497·DEBRIS·🇺🇸 United States

Wystrzelony Jun 12, 1975 z Vandenberg Space Force Base

Loading…

Następne Przeloty (najbliższe 24 godziny)

TLE

ŚwieżeSource: Space-Track

Epoka: Sep 13, 2026, 18:35 UTC

1 21497U 75052FS  26256.77453223  .00000004  00000-0  95890-4 0  9995
2 21497 100.0290 183.7490 0058967 154.0782 262.3110 13.32999244719807

Śledź DELTA 1 DEB w czasie rzeczywistym z AllMySat

Download on the App Store